Location: Stoke Bliss
(52.2667°N, 2.5167°W)
Time: 17:05:16
(UTC+00:00)

FALCON 9 DEB - Visible Passes

Search period start: 22 June 2021 00:00
Search period end: 02 July 2021 00:00
Orbit: 368 x 379 km, 53.0° (Epoch: 21 June)

Date Brightness Start Highest point End Pass type
(mag) Time Alt. Az. Time Alt. Az. Time Alt. Az.
22 Jun 2.9 00:30:27 10° W 00:33:35 83° N 00:36:43 10° E visible
22 Jun 3.4 02:06:14 10° W 02:09:09 37° SSW 02:12:03 10° SE visible
22 Jun 2.8 21:52:46 10° WSW 21:55:52 66° SSE 21:58:58 10° ENE visible
22 Jun 3.0 23:28:27 10° W 23:31:35 75° N 23:34:42 10° E visible
23 Jun 2.8 01:04:11 10° WNW 01:07:17 61° SSW 01:10:22 10° ESE visible
23 Jun 4.5 02:40:29 10° W 02:42:30 16° SW 02:44:31 10° S visible
23 Jun 2.9 22:26:25 10° W 22:29:33 80° N 22:32:41 10° E visible
24 Jun 2.7 00:02:10 10° WNW 00:05:19 88° S 00:08:26 10° ESE visible
24 Jun 3.7 01:38:01 10° W 01:40:46 28° SSW 01:43:30 10° SSE visible
24 Jun 2.8 21:24:24 10° WSW 21:27:31 79° SSE 21:30:39 10° ENE visible
24 Jun 3.0 23:00:09 10° W 23:03:16 77° N 23:06:23 10° E visible
25 Jun 3.0 00:35:52 10° W 00:38:54 49° SSW 00:40:52 19° SE visible
25 Jun 5.2 02:12:45 10° WSW 02:12:46 10° WSW 02:12:46 10° WSW visible
25 Jun 3.0 21:58:05 10° W 22:01:11 76° N 22:04:19 10° E visible
25 Jun 2.7 23:33:49 10° WNW 23:36:56 77° SSW 23:39:44 12° ESE visible
26 Jun 4.4 01:09:48 10° W 01:11:41 21° SW 01:11:41 21° SW visible
26 Jun 2.9 22:31:45 10° W 22:34:53 82° NNE 22:38:01 10° E visible
27 Jun 3.4 00:07:31 10° W 00:10:27 38° SSW 00:11:00 34° S visible
27 Jun 3.1 21:29:40 10° W 21:32:46 75° N 21:35:54 10° E visible
27 Jun 2.8 23:05:23 10° WNW 23:08:28 63° SSW 23:10:32 19° ESE visible
28 Jun 5.0 00:41:38 10° W 00:42:29 14° WSW 00:42:29 14° WSW visible
28 Jun 2.8 22:03:16 10° WNW 22:06:25 90° SSE 22:09:32 10° ESE visible
28 Jun 3.8 23:39:06 10° W 23:41:52 29° SSW 23:42:08 29° SSW visible
29 Jun 3.1 22:36:53 10° W 22:39:55 51° SSW 22:41:51 19° SE visible
30 Jun 5.4 00:13:37 10° WSW 00:13:50 11° WSW 00:13:50 11° WSW visible
30 Jun 2.8 21:34:43 10° WNW 21:37:51 79° SSW 21:40:58 10° ESE visible
30 Jun 4.2 23:10:41 10° W 23:13:13 23° SW 23:13:35 22° SSW visible
01 Jul 3.5 22:08:19 10° W 22:11:16 40° SSW 22:13:24 16° SE visible
